Location: Hanmanchip?lem
(16.7885°N, 80.2575°E)
Time: 06:25:13
(UTC+00:00)

Cosmos 2219 Rocket - Pass Details

Date: 26 September 2023
Orbit: 826 x 848 km, 71.0° (Epoch: 30 November)

Event Time Altitude Azimuth Distance (km) Brightness Sun altitude
Rises 00:03:26 0° 344° (NNW) 3,389 5.2 -6.8°
Reaches altitude 10° 00:05:53 10° 346° (NNW) 2,456 4.5 -6.2°
Maximum altitude 00:11:31 82° 73° (ENE) 855 2.4 -4.9°
Drops below altitude 10° 00:17:11 10° 161° (SSE) 2,461 4.9 -3.5°
Sets 00:19:38 0° 162° (SSE) 3,396 5.6 -2.9°
